Погода в Хрущеве

Россия / Рязанская область     54°10′41″N   40°00′03″E
темп.,
°C
ветер,
м/с
пор.,
м/с
влажн.,
%
обл.,
%
осадки,
мм/ч
давл.,
гПа
погр.,
м
22 октября, пт
пт2200:00+11юз81768100 0.0 1000684
03:00+11юз91773100 0.0 999644
06:00+10юз81675100 0.0 999676
09:00+11юз81573100 0.0 999810
12:00+14зюз9146595 0.0 10001282
15:00+14зюз1016605 0.1 10011716
18:00+11зюз814625 0.0 1004980
21:00+9зюз613675 0.0 1006616
23 октября, сб
сб2300:00+8юз613686 0.0 1006599
03:00+6юз6137269 0.0 1007526
06:00+6юз614665 0.0 1007568
09:00+7юз7136412 0.0 1007735
12:00+9зюз812495 0.0 10081336
15:00+10зюз71255100 0.0 10081740
18:00+8зюз6106299 0.1 1009964
21:00+5зюз61192100 0.5 1010803
24 октября, вс
вс2400:00+4зюз5118289 0.4 1010360
03:00+3зюз5119292 0.4 1011592
06:00+4з5873100 0.1 1011970
09:00+4зюз698262 0.1 1012740
12:00+6зюз6874100 0.3 10121048
15:00+5з6876100 0.7 1012871
18:00+3зсз4896100 0.1 1014536
21:00+2сз4895100 0.3 1016682
25 октября, пн
пн2500:00+2ссз698997 0.1 1018751
03:00+1ссз71083100 0.2 10211000
06:00+1ссз6107499 0.1 10241154
09:000с6107856 0.1 1027731
12:00+2с685710 0.0 10291070
15:00+3с575136 0.0 10301102
18:00+1ссз35676 0.0 103296
21:00−1сз22745 0.0 103324
26 октября, вт
вт2600:00−1з34745 0.0 103455
03:00−2зюз37755 0.0 1034131
06:00−2юз410775 0.0 1033224
09:00+1зюз5126561 0.0 1033424
12:00+5зюз71045100 0.0 1031691
15:00+5юз6114639 0.0 1029745
18:00+2юз61456100 0.0 1028446
21:00+2юз61559100 0.0 1027436